Theta_e
304 304 304 304 304 305 305 306 306 304 303 307 306 309 302 301 297 305 309 313 308 303 294 296 292 291 294 297 295 297 295 295 297 295 297 294 297 295 294 293 293 294 293 294 293 294 293 295 294 296 297 297 298 300 300 299 298 300 298 298 297 305 292 290 292 296 295 297 298 299 298 296 295 296 298 297 295 296 294 292 294 290 290 288 288 285 290
303 304 304 304 304 305 305 306 306 305 303 304 307 306 301 301 300 302 308 313 308 299 288 289 289 292 295 295 294 297 296 295 294 294 296 295 295 294 294 295 295 295 297 296 292 296 289 294 295 295 297 298 300 301 303 302 300 301 297 296 301 291 295 294 289 287 290 292 295 295 297 296 296 295 297 296 297 297 299 297 298 289 290 290 287 283 291
303 303 304 304 304 305 305 305 305 304 303 305 306 303 302 302 304 303 305 309 306 295 295 294 291 292 292 293 291 293 294 296 296 296 294 296 295 295 295 295 296 295 297 295 296 296 294 295 296 297 297 296 298 300 302 302 300 300 301 301 301 293 292 289 286 283 281 281 282 285 288 292 295 294 293 294 294 296 294 288 291 286 291 291 288 288 292
303 303 303 304 304 305 305 305 304 304 303 302 308 304 303 297 290 297 301 304 302 299 301 298 295 292 293 290 292 293 291 295 296 296 294 295 295 295 295 295 296 295 295 294 294 294 296 294 295 296 295 296 297 299 302 301 302 302 305 302 301 293 294 290 289 289 287 288 289 291 292 294 291 291 293 293 295 298 298 295 290 287 291 289 292 294 290
303 303 303 303 304 305 305 305 304 303 303 303 306 305 303 300 292 292 290 300 298 296 296 294 296 292 295 288 292 290 291 293 294 296 294 294 294 294 294 293 293 294 294 295 294 293 293 296 296 294 294 295 297 298 302 303 304 305 301 303 298 296 289 290 293 291 291 292 291 292 293 292 292 292 293 293 294 296 298 290 289 296 292 286 293 296 292
302 303 303 303 304 304 305 305 304 303 302 303 308 299 301 292 294 298 298 292 289 291 290 293 291 294 295 291 294 291 290 290 289 293 294 294 296 294 293 293 293 292 293 296 291 293 293 295 290 294 295 294 296 296 298 298 299 302 300 303 299 294 288 289 292 289 291 293 293 293 292 292 292 292 293 292 294 296 295 294 294 299 290 288 293 295 291
302 302 303 303 304 304 305 305 304 303 301 304 308 298 299 298 297 296 299 293 294 293 290 294 292 291 293 292 293 291 290 289 290 290 292 293 293 294 286 290 292 293 294 294 292 292 290 287 293 292 294 295 296 294 295 297 300 301 300 300 303 297 291 292 292 289 290 291 291 293 293 292 292 292 292 293 295 295 295 294 296 297 295 296 295 293 291
302 302 303 303 304 304 305 305 304 303 301 308 303 300 298 294 295 292 298 298 295 294 293 292 292 288 292 289 290 290 290 289 290 291 291 288 291 294 291 290 292 293 293 293 290 290 291 291 288 292 292 294 296 295 295 294 298 300 299 299 303 300 289 293 293 290 289 291 292 292 292 292 291 292 293 294 294 294 295 295 296 296 294 293 292 288 288
302 302 303 303 304 304 305 305 304 303 302 304 301 298 301 300 301 299 294 290 291 293 293 290 289 287 287 287 288 290 290 289 292 290 292 290 288 290 290 292 293 294 293 292 290 291 292 292 292 293 292 291 293 293 294 294 295 296 298 300 300 301 291 296 294 288 287 290 289 289 292 292 290 291 292 292 293 290 293 290 293 294 291 292 290 288 287
301 302 302 303 303 304 304 305 305 303 303 304 301 297 303 303 301 301 298 288 290 291 292 292 290 284 286 286 285 286 288 290 293 288 292 292 292 291 292 293 294 292 292 290 291 293 293 294 294 294 295 295 295 295 294 294 294 295 296 299 297 298 294 291 291 288 287 291 290 290 288 290 285 287 291 291 291 291 291 292 294 296 296 291 290 291 293
301 302 302 303 303 304 304 305 305 303 305 300 300 298 301 298 297 298 297 288 288 291 290 288 288 286 290 289 288 289 287 289 290 287 286 292 292 293 293 293 292 289 289 291 295 296 295 296 296 297 295 295 294 295 294 294 295 293 295 296 297 300 296 292 296 287 289 291 292 293 288 280 283 288 288 290 289 289 290 287 288 291 293 292 295 293 294
301 302 302 303 303 304 304 304 305 304 303 304 305 302 301 302 301 298 293 287 286 291 288 285 286 288 288 290 290 289 288 288 288 291 287 290 292 293 293 293 293 286 292 297 298 297 297 297 296 296 295 295 295 295 295 294 294 295 296 295 295 295 296 293 296 289 288 291 291 285 279 283 289 290 292 292 292 292 289 288 289 290 291 294 293 292 292
301 301 302 302 303 304 304 304 305 304 304 306 304 300 303 303 299 295 293 289 285 289 286 287 289 289 289 290 290 290 291 291 291 292 292 292 292 293 293 291 290 291 296 296 297 297 294 289 290 290 292 294 295 295 293 293 294 295 295 295 296 291 292 293 291 292 291 287 287 278 281 287 290 292 293 295 294 293 291 288 289 291 293 294 292 293 294
301 301 301 302 303 303 304 304 305 305 304 304 303 302 303 303 301 296 293 289 286 289 290 289 289 289 290 289 289 290 292 292 293 294 292 293 292 292 293 294 294 296 297 297 296 296 292 292 287 289 289 291 292 291 292 294 294 294 293 294 296 296 296 293 288 291 284 287 287 284 288 288 288 288 290 292 289 290 290 285 286 292 294 295 293 292 292
300 301 301 302 302 303 304 304 305 305 305 304 306 305 302 302 302 299 298 294 286 288 289 284 287 289 289 289 290 290 290 291 291 291 292 294 293 293 294 295 297 297 299 297 293 294 289 289 285 285 288 286 282 285 292 289 292 294 295 295 295 296 291 291 289 285 288 286 284 284 282 280 285 289 292 293 293 293 293 291 286 292 294 296 293 291 291
300 301 301 301 302 303 303 304 304 304 304 303 307 304 303 304 304 302 297 292 290 283 286 290 291 290 289 289 290 289 287 288 289 291 291 291 291 293 295 296 298 299 297 294 293 290 288 285 284 284 283 285 288 286 285 289 288 292 294 294 293 294 295 292 289 286 286 284 282 281 280 281 286 289 290 292 292 294 295 290 286 291 294 295 295 292 293
300 300 301 301 302 302 303 304 304 304 305 303 303 302 302 306 303 301 297 294 291 285 291 292 294 294 290 289 291 289 290 287 289 286 286 287 289 291 293 296 299 298 294 294 292 290 287 286 289 287 287 287 285 284 288 287 287 287 291 293 292 292 290 290 287 285 286 285 282 282 284 281 286 289 290 291 294 291 292 282 283 290 294 294 294 293 293
300 300 300 301 301 302 303 304 304 305 304 304 304 302 302 306 307 307 298 294 288 287 291 293 292 289 287 289 288 290 292 291 291 292 289 290 290 290 290 292 291 296 297 290 290 287 285 285 283 283 283 288 288 288 281 286 283 284 285 287 287 286 286 288 283 286 284 283 284 286 284 286 289 289 291 292 294 292 283 280 286 292 294 294 295 294 294
299 300 300 300 301 302 302 303 304 304 305 304 306 306 302 305 306 308 299 294 291 285 291 294 295 292 293 295 293 292 291 292 291 288 287 288 289 291 291 291 293 288 293 289 290 285 284 284 289 287 284 286 288 282 288 283 282 287 287 286 286 285 285 285 287 284 284 284 282 282 284 285 290 290 290 291 289 282 283 288 294 294 293 294 294 293 294
299 299 300 300 301 301 302 303 304 304 305 304 304 300 301 307 307 305 298 292 292 289 292 292 293 291 293 292 290 290 291 291 291 289 287 284 292 293 292 287 292 293 290 292 284 287 285 282 285 288 285 286 287 289 285 284 287 285 286 287 285 285 283 283 283 284 284 284 282 279 277 283 289 290 288 290 284 284 289 292 293 294 293 293 293 293 293
299 299 299 300 301 301 302 303 304 304 305 304 302 304 299 306 307 307 305 301 293 288 289 295 295 293 294 293 294 293 292 288 289 289 290 290 293 292 282 281 287 289 285 287 282 283 285 284 286 285 288 287 288 288 283 283 285 288 287 287 287 290 284 284 284 286 281 282 279 279 283 287 292 291 285 287 288 291 293 292 290 293 293 293 293 293 294
299 299 299 299 300 301 302 303 303 304 304 304 303 307 298 303 308 306 305 304 294 290 292 296 297 296 296 297 297 298 295 294 294 295 292 289 293 291 290 291 289 290 290 292 289 287 290 288 290 286 284 286 290 285 287 283 281 286 290 289 282 289 287 288 284 288 284 282 283 286 290 291 292 293 291 292 294 295 294 294 293 292 292 295 293 293 294
299 299 299 299 300 301 301 302 303 303 304 304 303 304 300 302 302 307 308 295 298 298 299 297 297 297 298 298 298 298 299 299 300 299 296 293 288 291 290 290 289 293 294 294 288 289 289 289 285 289 286 287 285 285 286 286 283 286 283 288 287 289 290 293 290 284 289 290 291 291 291 291 292 293 294 294 294 295 296 294 293 294 294 295 294 294 294
299 299 299 299 300 301 301 302 303 303 303 303 302 303 301 302 303 306 299 297 293 290 293 297 293 289 292 292 296 298 298 297 299 300 302 301 288 288 292 292 293 295 292 293 292 290 288 288 288 290 283 287 288 284 282 281 283 286 285 285 288 290 291 290 285 288 286 281 290 289 289 291 292 292 293 294 295 294 294 293 293 293 293 293 294 293 293
299 299 299 299 299 300 301 302 302 303 303 303 303 304 306 303 303 302 301 290 290 290 285 288 290 294 296 297 298 297 297 298 300 301 301 298 295 289 287 292 296 292 290 294 296 294 290 286 288 287 282 288 289 283 287 284 283 288 283 285 287 286 293 288 287 287 285 285 289 290 292 292 293 293 291 290 291 292 292 292 292 292 292 293 293 293 292
299 299 299 299 300 300 301 302 302 302 302 302 302 302 299 298 304 307 304 299 297 292 287 285 290 297 298 296 294 295 297 298 297 299 299 297 296 298 295 297 296 299 296 295 296 290 288 287 288 287 285 284 292 286 285 286 286 288 287 285 289 289 291 284 287 286 287 290 291 291 292 292 291 293 295 294 294 293 293 294 293 294 293 293 294 294 293
299 299 299 299 300 300 301 302 302 302 302 302 303 303 302 302 304 301 299 299 293 287 289 286 291 293 295 294 296 298 297 298 299 298 296 296 296 297 297 295 293 294 294 293 292 290 289 287 287 285 288 286 290 288 288 287 287 285 285 287 290 288 285 288 287 284 283 284 287 290 284 284 289 291 292 293 294 294 293 293 293 293 293 293 292 293 294
299 299 299 299 300 300 301 301 302 302 302 302 303 303 305 302 303 304 303 302 298 289 288 288 289 292 297 294 296 297 297 298 298 297 295 295 296 296 295 293 293 292 291 290 287 287 287 285 285 287 288 289 288 285 288 288 288 287 287 288 289 287 288 287 285 284 283 289 291 292 291 291 292 293 293 294 294 294 292 292 293 293 293 293 292 292 292
299 299 299 299 300 300 301 302 302 302 301 301 304 304 303 303 305 305 304 305 304 297 292 292 295 294 288 291 297 296 297 298 298 297 296 295 295 295 294 293 292 292 292 289 288 288 286 286 288 287 287 290 287 284 286 282 282 281 285 288 289 291 292 290 289 288 289 292 292 292 291 289 291 293 294 293 295 294 293 293 293 293 294 293 293 292 292
299 299 299 299 300 301 301 302 302 302 301 303 302 300 295 297 302 303 304 304 303 300 290 287 285 287 296 295 295 295 295 297 296 297 295 294 294 294 293 294 293 293 292 288 287 285 286 286 287 291 292 295 287 285 282 284 282 284 287 289 290 291 291 292 292 291 288 293 293 293 292 292 293 293 294 294 294 294 293 293 293 293 293 293 292 292 293
300 299 299 300 300 301 302 302 302 301 301 303 300 289 289 287 298 304 302 304 304 300 291 291 287 291 291 295 296 293 294 294 295 295 295 295 294 294 294 295 294 293 289 288 288 286 287 285 286 287 291 292 288 285 284 283 280 283 287 289 289 289 290 290 293 293 292 293 294 293 292 292 293 291 292 293 293 293 293 294 294 293 294 293 292 292 292
300 300 300 300 301 301 302 302 302 302 305 302 297 295 295 296 300 303 303 303 303 301 291 287 286 287 287 290 295 295 295 295 296 296 294 296 294 295 295 294 291 294 290 288 288 287 286 286 286 287 288 291 288 285 285 284 281 282 287 288 290 291 291 291 292 292 293 293 292 290 289 290 291 290 290 293 294 294 294 293 293 293 292 292 293 293 293
300 301 301 301 301 301 302 302 302 303 303 301 300 300 301 300 301 302 302 304 303 297 296 289 285 286 286 289 295 295 295 297 294 295 292 295 292 294 291 294 294 292 292 289 286 285 287 287 287 285 289 292 286 284 285 283 283 287 288 289 290 291 291 292 292 293 293 293 293 288 287 289 290 292 292 293 294 293 293 292 293 293 292 291 291 291 291
301 301 301 301 301 302 302 302 301 299 300 303 300 299 303 301 303 301 303 304 299 298 294 288 284 284 285 293 289 292 295 291 290 292 287 293 294 294 289 291 291 287 289 287 288 288 288 288 286 286 289 286 287 284 279 284 287 288 288 289 291 291 292 292 292 291 292 292 293 293 292 292 293 293 293 292 292 293 293 293 292 291 291 290 290 290 290
301 301 301 301 301 301 300 301 303 302 300 299 299 303 303 301 300 302 302 299 290 288 288 287 288 284 284 285 285 289 295 293 288 291 288 291 295 290 290 287 288 285 287 293 287 286 285 286 287 284 283 286 283 279 281 285 287 288 288 288 290 291 291 290 290 292 292 293 293 293 293 293 291 291 291 292 291 292 291 291 291 291 290 289 290 290 290
300 300 301 301 300 301 302 302 302 299 297 297 299 302 301 302 301 305 305 303 298 288 286 287 287 285 285 282 282 287 295 291 292 293 291 290 291 293 291 288 284 286 291 287 284 287 285 289 286 282 286 281 280 283 285 288 288 288 289 289 290 291 290 290 290 291 293 293 293 293 292 292 291 291 291 291 291 291 291 290 291 291 289 289 289 290 290
300 300 299 300 303 303 298 296 299 300 299 301 301 301 301 301 303 304 302 299 302 300 291 287 286 286 287 285 287 289 293 285 291 289 291 288 286 288 288 286 283 286 287 285 285 284 287 291 285 281 281 280 283 288 288 289 288 289 289 290 291 292 292 292 292 292 292 292 292 292 291 291 291 291 291 290 291 291 290 290 290 289 288 289 289 290 290
299 299 303 301 299 292 291 294 298 301 299 299 300 300 299 297 291 292 292 291 295 295 291 291 286 289 291 289 284 292 292 288 292 286 287 289 286 286 288 285 284 284 280 282 284 289 286 285 282 282 282 288 289 288 288 290 291 291 292 292 292 293 293 293 293 292 289 288 289 289 289 289 289 290 290 290 290 290 289 291 291 291 290 290 290 290 290
299 301 299 298 295 290 291 297 302 298 300 301 300 293 290 292 290 287 287 289 290 288 291 290 287 291 289 288 289 293 291 287 287 288 284 289 285 282 286 281 285 284 281 281 282 289 281 282 282 282 281 285 286 288 290 291 292 293 294 294 293 293 294 293 293 291 289 289 289 290 289 288 288 289 291 291 291 291 291 291 291 291 291 291 291 290 290
299 295 291 292 291 294 300 302 299 300 300 292 292 290 286 289 286 283 289 286 285 288 290 286 290 291 291 288 287 287 294 291 285 284 286 287 291 283 285 284 284 282 277 278 281 288 281 277 281 280 280 285 286 289 290 290 291 293 293 292 293 294 295 293 293 294 293 292 292 292 293 292 292 292 291 291 290 289 290 291 291 291 291 291 291 290 289
298 298 296 292 297 299 300 301 302 298 292 288 287 287 286 283 286 287 286 283 283 284 290 290 291 290 291 291 291 287 294 295 293 292 288 284 290 289 284 279 285 279 277 278 284 284 282 280 280 279 281 285 287 289 290 291 292 292 292 294 294 294 294 294 294 293 292 291 292 292 292 293 292 293 293 292 291 289 288 288 290 291 291 291 290 290 291
297 296 298 299 299 299 299 297 293 290 288 289 284 280 283 284 287 286 287 282 282 286 289 289 286 288 288 290 290 292 291 295 291 288 287 283 286 284 281 283 283 278 275 282 285 283 281 276 277 279 284 287 289 290 291 290 292 292 293 294 294 294 294 294 293 292 293 292 292 292 293 293 293 293 293 292 291 290 289 290 291 291 291 291 292 291 291
297 298 298 297 295 292 292 288 289 288 281 281 280 278 283 280 282 283 283 287 289 288 288 294 292 294 293 294 291 294 290 294 289 288 286 283 287 286 282 280 279 275 280 286 283 280 277 277 277 281 287 288 290 290 291 291 292 293 294 295 295 295 294 293 292 292 293 293 292 292 292 293 293 293 293 293 292 290 291 291 291 292 291 292 292 291 290
298 297 294 291 289 288 289 279 288 285 281 282 280 276 279 279 282 284 283 285 288 288 290 287 288 289 285 291 289 288 289 292 291 288 287 287 284 280 279 277 279 284 287 282 280 276 278 280 281 285 287 289 290 290 290 291 292 293 293 294 294 295 295 294 294 293 292 294 294 294 293 293 293 293 294 293 292 291 291 291 292 291 292 292 291 291 291
293 289 289 287 285 287 284 276 287 283 277 280 282 282 282 279 282 284 284 288 290 287 291 291 290 289 286 291 292 290 289 286 291 285 281 284 281 282 278 278 283 283 279 276 278 279 279 278 284 286 287 287 289 290 291 292 292 292 292 293 293 294 293 293 293 292 292 292 293 293 293 292 292 292 293 293 293 293 292 291 292 292 292 291 290 290 290
289 287 286 281 276 282 283 279 281 279 283 285 284 286 286 286 287 287 290 292 289 290 290 290 290 290 287 290 285 285 288 288 284 284 285 284 279 277 283 286 284 278 277 278 275 274 277 282 284 286 288 288 289 289 291 292 293 293 293 292 293 293 294 293 293 293 293 293 293 293 293 293 292 292 292 293 294 293 293 292 293 292 292 291 290 290 290
288 288 287 286 281 283 285 280 281 285 286 287 288 289 288 289 289 290 291 291 290 291 291 292 291 290 286 287 287 287 287 287 282 285 286 280 278 282 285 280 275 277 273 273 274 277 280 283 285 287 289 289 288 289 290 290 291 292 292 293 293 293 294 294 294 294 294 294 294 294 294 294 293 293 293 293 294 294 292 293 293 293 293 291 291 290 290
285 288 287 280 278 283 281 284 289 289 290 290 289 290 290 290 289 289 291 292 292 292 291 290 287 289 287 290 288 284 285 286 282 283 285 282 284 280 278 277 276 278 278 276 277 282 283 285 286 287 289 290 290 290 289 290 291 291 292 292 292 293 293 294 294 294 295 294 294 294 294 294 294 293 293 293 294 293 293 293 293 293 293 293 292 291 290
289 287 284 283 284 285 285 287 288 286 288 289 289 290 289 289 288 290 292 293 291 290 292 290 287 287 283 287 284 284 281 285 279 279 284 281 276 274 274 272 274 274 279 282 282 284 285 287 289 289 290 290 290 290 290 291 291 291 291 292 292 293 293 294 294 295 295 295 294 294 294 294 294 293 293 293 293 293 294 294 294 293 293 292 292 291 290
288 287 287 286 285 286 288 289 287 285 287 288 288 288 290 288 289 290 292 291 292 291 291 290 289 286 285 285 280 282 281 284 282 282 280 277 278 279 277 274 276 276 280 284 285 286 288 289 290 289 290 289 290 290 290 291 291 292 293 294 294 294 293 294 294 295 295 295 295 295 295 295 294 293 292 292 293 293 294 294 293 293 293 293 292 291 290
291 288 288 291 286 285 286 282 283 283 285 286 287 288 289 288 289 289 293 292 292 289 287 284 286 284 283 282 280 276 279 285 281 280 279 278 282 279 277 276 279 283 284 287 288 288 289 289 289 289 289 290 290 290 291 292 293 293 294 294 294 294 294 294 294 294 295 296 296 291 295 295 295 294 294 294 294 293 293 293 292 293 293 293 293 292 291
287 285 286 289 290 289 289 289 288 288 288 289 289 290 290 288 290 291 294 291 290 285 284 287 285 282 280 278 280 283 285 282 279 280 277 281 283 279 280 281 283 285 286 286 287 288 289 289 289 288 290 290 290 291 292 292 292 293 294 294 294 294 293 294 294 294 294 295 295 295 295 295 295 295 295 294 293 293 292 292 292 293 293 293 293 293 292
Wind_Speed
22 23 24 28 28 27 26 27 26 23 21 8 5 5 2 6 5 3 8 2 5 6 4 2 3 6 1 2 3 3 5 6 3 6 0 5 3 5 6 6 6 7 7 4 6 4 5 5 10 6 4 8 8 5 3 1 2 3 4 2 1 1 3 8 10 3 3 5 3 1 1 2 6 6 3 4 10 10 10 9 4 8 5 8 7 6 4
23 23 25 28 28 27 26 26 25 22 17 7 6 4 3 4 4 4 9 3 5 5 2 1 2 4 1 4 1 2 2 2 4 5 3 3 1 4 3 3 4 4 1 4 7 1 4 3 5 5 5 2 4 7 6 1 3 4 3 1 3 3 4 8 5 7 7 6 7 6 3 4 6 4 2 3 1 2 1 1 1 7 9 12 8 10 4
22 23 26 28 28 27 26 27 25 21 18 8 4 3 2 2 2 3 6 8 5 2 4 4 2 2 1 3 2 2 4 4 5 3 4 3 3 3 2 3 3 4 2 4 4 2 4 0 2 3 4 5 5 5 3 4 6 7 5 4 2 2 5 2 9 10 10 10 10 9 7 7 3 2 2 0 5 6 6 7 5 10 5 7 9 3 6
23 23 25 27 28 28 27 26 25 23 18 12 4 3 3 4 2 2 4 6 6 8 4 4 3 2 2 1 4 2 3 5 4 3 5 5 3 5 3 1 1 3 4 5 4 2 3 4 2 5 6 7 4 3 4 7 6 8 6 7 4 2 4 5 6 5 3 6 6 5 4 4 5 5 3 1 2 3 8 9 8 10 5 8 1 3 11
23 23 25 27 27 27 27 26 27 26 21 12 4 2 3 1 4 3 4 1 6 7 8 9 8 2 3 0 5 3 2 1 4 7 1 6 4 3 7 3 3 1 3 4 3 0 2 3 4 4 4 4 5 3 5 9 10 12 8 7 4 2 2 7 9 10 7 6 7 6 5 4 5 3 3 3 3 3 5 7 6 3 4 7 6 12 12
23 23 24 27 27 27 24 26 27 27 24 15 4 3 4 1 2 2 3 5 5 4 6 10 6 11 2 4 3 6 6 7 4 3 6 2 6 2 5 8 6 1 1 2 2 2 3 5 2 3 5 7 7 8 6 5 5 6 7 8 6 8 3 4 6 8 10 10 9 7 6 7 7 8 7 7 5 5 3 5 7 7 4 4 10 12 10
22 23 23 26 27 27 26 26 27 27 27 18 4 1 4 4 3 4 5 1 6 6 2 6 7 9 8 6 9 10 10 10 7 5 4 4 8 9 4 9 10 8 2 1 4 5 3 3 5 5 4 4 3 7 8 7 3 8 8 9 5 5 3 8 8 11 9 8 10 11 8 5 6 7 8 8 10 9 8 8 9 8 9 11 12 13 11
21 22 23 25 27 27 26 27 26 27 27 14 7 8 4 4 3 4 4 5 5 5 3 4 4 6 11 4 10 8 9 9 9 9 10 5 8 10 8 9 9 11 12 9 7 7 7 4 2 5 6 3 5 4 5 2 1 3 6 6 4 6 4 9 10 8 7 7 3 5 9 9 6 5 6 7 9 10 9 9 9 11 12 11 14 12 9
21 21 22 24 26 25 26 25 25 27 25 6 8 7 6 3 2 3 2 4 5 3 4 3 5 5 7 7 8 7 11 9 7 9 9 11 8 10 9 8 5 9 11 12 11 8 6 4 3 5 5 3 5 4 4 5 1 2 6 3 5 4 7 8 8 5 6 7 4 3 5 8 8 6 1 5 6 5 6 4 6 3 7 10 10 7 6
20 21 22 23 25 25 26 25 24 25 21 6 6 7 2 1 1 2 3 4 4 4 6 5 2 6 5 4 4 4 9 9 7 2 8 10 11 10 10 9 4 9 12 13 12 11 8 6 6 5 3 3 4 2 4 4 4 2 2 2 6 7 9 7 7 7 5 10 8 6 3 4 7 4 4 4 5 5 5 6 5 8 5 9 4 4 8
19 20 21 21 24 25 24 24 22 23 13 8 6 6 5 4 2 1 3 3 3 5 4 8 8 3 3 4 2 2 5 9 10 5 4 8 11 12 10 11 7 7 10 11 11 9 9 8 6 4 4 3 2 1 2 3 4 4 3 2 2 4 10 7 8 7 4 12 10 9 7 9 8 3 2 1 5 4 3 3 3 4 5 3 6 11 13
20 20 20 22 22 24 24 23 21 20 14 5 4 3 3 3 4 3 1 3 4 5 7 7 6 5 6 6 3 4 4 5 5 5 5 6 6 9 11 11 9 4 10 11 10 7 4 3 3 3 2 5 6 5 6 7 6 3 4 5 2 6 7 6 6 7 5 8 9 7 10 7 5 3 4 3 5 7 11 9 5 2 2 6 12 14 14
19 19 20 21 22 24 24 23 22 20 18 7 5 5 4 2 4 4 2 4 5 4 5 6 5 7 5 6 4 4 3 1 2 2 1 5 6 9 9 8 8 7 12 13 13 8 5 1 2 1 5 5 6 5 5 7 7 6 6 5 3 2 5 2 3 3 4 5 7 6 4 7 3 6 5 4 7 10 13 9 6 4 5 9 12 13 12
19 19 20 21 21 22 24 23 22 21 19 12 4 5 4 4 4 2 1 2 5 5 2 4 7 8 9 8 6 2 1 2 1 3 5 5 6 8 8 7 8 8 8 8 8 6 2 3 3 5 5 6 5 4 7 7 8 6 6 5 3 3 3 3 3 2 5 5 9 5 5 6 6 5 6 5 5 8 5 3 4 3 4 8 12 12 12
19 18 19 20 21 21 23 22 22 22 19 16 4 4 6 6 5 4 2 1 8 7 7 5 6 7 6 8 8 3 3 4 3 2 4 3 6 7 7 9 8 8 7 7 3 2 0 1 3 5 4 5 5 4 5 3 4 7 5 5 3 1 3 1 3 2 3 6 8 4 3 7 5 4 5 4 4 5 2 3 6 4 4 9 12 14 14
18 18 18 20 20 21 22 23 22 20 19 19 3 5 6 6 4 3 3 2 1 5 7 6 5 5 4 6 7 8 4 3 4 3 0 4 8 7 7 9 7 8 7 4 2 2 1 2 2 4 4 1 2 2 1 3 3 4 4 3 3 4 2 1 6 2 4 6 9 9 9 1 4 6 4 4 2 3 2 3 4 7 7 10 12 14 13
18 19 19 19 20 20 21 22 21 21 19 18 6 6 6 8 5 5 4 7 9 8 5 6 4 4 3 6 5 7 7 4 6 3 2 4 8 8 8 10 4 6 9 3 3 1 1 1 3 4 3 4 1 1 0 1 1 3 4 3 4 2 0 0 2 3 4 7 9 8 1 3 2 3 2 3 3 3 5 6 6 11 10 10 11 12 11
17 18 18 18 19 20 20 21 21 20 20 18 7 5 5 7 6 6 4 6 8 9 8 9 9 7 8 7 7 6 3 4 2 1 2 2 4 8 9 9 8 7 10 2 3 2 3 3 2 1 0 4 2 2 2 3 3 3 4 4 2 2 2 0 3 3 1 2 7 1 4 3 3 2 4 3 3 4 6 7 7 11 11 9 10 10 7
16 17 17 18 18 19 20 20 20 20 20 20 9 1 6 8 8 6 3 5 6 7 6 6 7 9 3 2 5 3 3 4 7 3 4 1 4 9 6 2 4 5 8 3 4 3 2 3 1 2 1 4 1 2 2 1 3 3 3 1 3 3 1 1 1 2 5 4 6 4 2 3 4 4 6 6 3 5 2 6 6 11 11 9 10 10 8
15 16 16 17 17 18 19 19 20 19 19 19 11 5 2 6 5 7 5 8 6 8 7 8 8 11 9 10 9 8 5 5 8 6 6 6 8 9 4 2 5 7 4 4 4 4 2 4 3 2 0 1 3 1 4 4 4 5 3 2 2 4 3 1 1 1 1 2 4 1 6 3 4 4 3 3 2 4 5 8 10 9 11 10 10 8 8
15 15 15 16 16 17 18 19 19 19 19 19 12 2 5 5 6 6 6 4 5 6 6 4 4 9 8 10 9 9 9 9 9 7 6 7 9 6 3 4 7 5 5 4 4 4 3 2 3 2 2 3 2 3 1 3 5 5 5 4 5 6 4 2 2 4 4 6 6 2 4 3 2 4 1 5 7 6 6 8 10 8 8 8 7 8 7
15 14 14 15 16 17 17 18 19 18 19 19 15 4 5 4 3 3 3 4 5 6 6 4 3 5 6 6 5 6 7 8 8 7 6 5 8 8 4 3 7 6 4 4 1 2 1 2 0 0 1 2 2 1 1 3 1 4 4 4 2 8 4 6 2 5 3 5 4 4 3 4 5 7 10 10 9 6 7 7 8 7 7 5 7 7 7
15 14 13 13 14 16 17 16 17 17 18 18 12 4 5 3 3 5 4 6 4 3 2 3 3 4 5 5 4 4 4 3 4 5 8 6 4 6 7 6 6 4 3 5 5 4 4 4 3 3 2 4 3 1 2 2 1 1 2 6 5 4 3 2 2 5 7 8 7 6 7 8 8 8 8 10 9 8 7 7 7 7 7 6 6 7 6
14 13 12 11 12 14 15 15 16 16 17 16 10 3 4 4 4 4 2 3 1 5 5 3 2 5 6 7 5 2 1 3 5 5 4 6 3 3 4 6 4 1 4 5 2 5 3 3 3 3 2 3 5 2 0 2 3 3 2 4 4 4 1 1 3 7 3 4 5 8 8 7 8 9 8 8 7 8 7 8 7 7 6 7 7 6 6
14 13 12 11 11 13 13 14 14 15 15 15 10 1 2 2 4 4 3 1 1 0 3 4 5 4 4 2 2 2 6 3 3 3 4 6 8 6 6 5 5 5 5 4 1 3 1 1 3 1 2 3 6 1 2 2 4 3 1 3 4 6 2 3 5 3 1 7 8 7 6 5 6 6 6 6 6 6 6 6 6 6 6 6 6 5 5
13 12 11 11 11 12 13 12 13 13 14 14 10 5 6 6 5 4 2 2 2 1 2 4 5 2 1 1 6 6 4 4 2 2 4 5 4 5 3 2 1 1 2 2 4 2 1 1 1 2 0 3 5 2 2 5 3 1 4 3 5 4 3 1 1 2 5 8 7 6 5 5 4 3 3 4 4 6 6 5 6 6 6 6 5 4 3
11 11 10 10 10 11 12 12 11 11 11 10 5 4 4 5 6 7 5 4 2 2 1 3 3 4 3 6 4 2 3 3 1 1 2 2 3 1 1 2 2 1 2 2 2 1 0 1 2 3 4 4 3 4 2 2 0 1 1 4 1 4 2 3 3 3 4 4 7 9 4 5 7 5 5 5 4 4 5 4 4 3 3 3 2 4 4
11 10 9 8 9 10 11 11 10 9 10 9 3 2 3 5 5 5 5 5 4 2 2 3 3 5 0 5 5 4 5 3 2 2 1 2 2 3 3 3 3 4 2 2 2 1 1 0 5 1 0 2 3 2 2 3 2 2 3 3 1 3 3 3 2 2 0 6 9 4 4 6 4 7 6 5 3 2 3 2 2 2 1 1 1 1 1
10 10 8 8 9 10 10 10 9 7 8 7 2 2 2 3 3 5 5 4 4 3 1 3 3 3 0 4 4 4 5 5 4 3 3 3 4 4 4 5 4 3 2 1 1 1 2 3 2 3 3 3 3 1 3 2 1 2 3 5 1 3 4 5 6 5 7 4 7 4 2 4 5 5 5 4 3 1 1 2 2 1 1 0 2 3 4
11 10 9 8 9 10 10 9 7 5 7 3 3 3 2 4 3 6 6 5 5 4 1 2 2 3 1 1 2 4 5 6 5 5 5 4 4 4 3 2 3 2 3 2 2 2 2 1 2 3 2 2 3 1 1 1 1 2 5 3 4 4 4 5 5 3 5 4 6 5 6 6 5 4 3 3 2 0 1 0 1 1 1 2 3 3 2
11 10 9 9 9 9 9 8 5 4 6 2 3 1 1 1 4 5 8 5 4 4 1 1 2 2 2 2 1 5 6 5 5 4 5 3 3 3 2 2 2 3 1 1 0 3 1 1 1 3 2 3 3 2 1 0 1 1 5 4 5 5 4 5 4 5 5 5 5 5 5 4 3 3 3 2 2 2 1 1 2 1 6 3 3 3 3
13 11 10 9 8 8 7 6 4 5 3 1 2 4 4 4 5 8 7 5 5 4 2 1 2 2 2 2 2 2 4 2 2 2 3 4 2 2 2 3 2 3 3 2 1 1 2 2 1 1 0 3 3 2 2 2 1 1 3 5 4 4 5 5 5 5 5 5 5 4 3 3 1 2 2 3 2 1 1 2 3 1 6 4 2 2 3
14 11 9 8 7 6 5 3 1 5 3 5 5 8 8 1 6 7 4 5 4 1 2 1 1 1 1 4 1 2 5 4 1 3 4 5 3 2 1 1 2 2 2 3 1 1 1 1 0 1 4 1 2 2 4 0 1 3 3 3 5 5 4 4 5 5 5 4 0 2 1 1 1 2 1 1 2 1 1 3 2 2 3 3 4 3 3
13 10 8 6 5 3 1 2 4 5 3 3 2 3 5 11 6 1 4 3 1 0 2 0 2 2 2 2 3 5 5 4 5 5 2 4 3 3 2 2 1 0 3 3 2 1 2 2 1 1 2 1 1 1 2 0 1 2 4 3 4 5 5 6 5 5 5 4 2 3 3 3 2 2 2 2 2 2 3 2 3 4 3 3 3 2 2
12 8 5 1 0 3 6 7 4 3 0 2 2 3 6 10 8 5 4 3 2 1 0 0 1 1 3 2 0 4 3 4 4 4 3 3 2 4 3 1 1 1 3 2 2 1 1 1 2 3 0 1 1 2 2 1 2 2 3 4 5 6 6 6 6 5 5 4 3 2 2 2 3 3 3 3 3 3 3 3 3 4 4 2 2 3 4
11 5 3 4 6 6 4 5 0 2 3 2 3 7 11 9 3 1 1 2 3 1 0 1 1 0 0 1 1 2 2 1 2 1 2 2 2 1 3 2 0 4 1 2 1 1 1 3 2 2 1 2 2 2 0 1 2 2 2 3 6 7 7 7 5 6 5 4 3 2 3 3 4 3 3 3 4 4 4 4 4 4 4 3 4 4 4
8 3 1 4 5 3 1 2 2 3 3 4 8 12 12 8 2 3 3 2 2 2 2 0 2 2 4 2 1 2 3 1 3 2 4 3 3 1 3 1 2 2 2 2 1 1 3 0 3 4 2 3 1 1 3 3 4 4 4 2 3 5 4 3 6 7 6 6 6 4 4 4 5 4 4 4 4 4 5 5 4 4 5 5 4 5 5
6 6 4 3 3 1 1 2 2 3 7 8 7 4 3 4 1 2 1 1 2 2 1 2 1 3 1 3 0 3 4 1 1 3 1 2 2 1 1 1 3 2 3 2 2 2 2 2 2 2 3 2 2 1 3 4 3 2 4 3 3 5 5 5 6 6 5 5 5 5 5 5 5 4 5 4 5 5 5 5 4 4 4 4 5 5 6
5 2 2 0 2 1 1 3 3 5 5 3 3 2 1 0 1 1 1 0 1 1 1 1 3 2 2 2 3 4 4 3 3 2 3 4 3 1 1 3 2 2 1 1 3 2 3 1 1 2 3 2 4 3 2 3 2 2 2 1 2 4 6 6 5 4 3 2 3 2 2 4 4 4 4 5 5 5 5 5 5 4 4 4 5 5 5
1 1 1 0 1 2 2 1 1 3 3 1 0 1 1 0 1 2 0 1 3 2 1 2 3 3 4 4 4 2 2 3 4 4 4 1 2 4 1 1 2 3 2 3 3 2 3 3 0 2 3 1 1 3 4 3 2 1 1 3 3 4 6 5 5 2 1 2 1 0 1 2 3 4 3 5 5 5 5 6 5 4 4 4 2 5 5
3 1 0 1 3 2 2 4 2 2 1 1 1 0 0 1 2 1 1 2 1 2 2 2 2 3 2 1 2 2 3 2 0 1 3 2 2 3 2 2 1 3 2 1 2 1 2 3 3 3 2 2 3 4 4 2 1 2 2 3 4 5 6 6 6 4 3 3 2 1 1 2 2 3 2 4 4 3 2 3 5 4 4 5 4 4 2
4 4 3 2 2 3 3 2 0 1 1 0 0 2 1 1 1 1 1 0 2 0 3 2 1 3 3 4 4 3 2 1 1 1 2 1 1 2 2 1 0 2 2 2 1 3 2 3 3 3 0 1 2 2 2 2 1 2 4 4 5 6 7 7 6 5 4 2 1 1 1 2 2 3 2 2 3 4 6 6 5 5 4 3 3 4 2
3 3 2 1 2 1 1 1 2 1 1 1 1 2 0 1 1 1 2 1 0 1 3 1 1 0 1 3 2 0 3 1 2 0 2 2 1 1 2 1 2 2 1 2 2 3 3 3 3 2 2 2 3 2 3 2 0 1 2 3 5 6 7 7 6 6 5 3 2 1 1 3 3 3 3 3 3 4 4 5 4 4 4 4 4 3 2
1 2 2 1 1 1 1 1 0 0 2 0 0 2 2 3 3 2 2 2 0 1 2 3 2 4 1 2 4 1 2 2 1 2 0 0 2 1 1 3 2 1 1 3 2 4 3 3 3 4 3 1 1 2 4 3 1 2 3 3 3 4 6 6 6 6 6 4 3 2 2 2 3 4 5 4 4 5 6 5 4 3 4 4 3 3 1
2 1 0 1 1 0 0 2 0 0 1 2 0 1 1 2 2 0 1 2 2 3 1 1 2 3 3 2 1 0 1 2 0 2 2 1 2 1 2 3 2 3 3 4 3 3 2 3 1 2 2 2 1 2 2 2 2 0 2 4 6 6 6 7 8 7 6 5 5 5 4 2 3 4 6 6 5 5 4 5 4 4 3 2 2 2 1
1 0 0 1 1 2 1 2 1 2 1 1 1 1 1 3 1 3 3 1 2 2 3 3 3 3 3 1 3 3 1 2 3 1 1 1 3 3 1 1 2 4 3 3 3 3 2 1 0 0 1 1 1 2 2 2 2 1 1 3 5 8 9 9 8 8 7 6 6 5 4 4 4 4 6 6 6 6 6 5 4 3 2 2 2 2 1
1 0 0 0 1 1 1 0 1 1 1 3 2 2 3 3 3 3 2 1 3 2 3 1 3 3 5 2 2 1 1 1 3 1 2 3 2 1 0 3 3 2 3 4 3 3 2 1 0 0 2 2 1 1 3 3 2 2 2 2 2 4 6 9 9 10 8 7 6 6 5 6 5 5 5 6 6 6 6 6 5 4 3 3 1 1 1
0 0 1 1 2 1 2 1 2 3 1 2 3 2 2 0 2 2 2 0 1 2 3 3 2 1 2 2 2 3 4 2 3 2 1 2 1 2 2 2 3 3 2 3 4 2 2 1 1 2 3 3 4 5 5 5 4 5 5 5 4 4 4 6 8 9 9 9 8 8 7 7 7 6 6 6 7 7 7 7 5 4 3 3 2 2 2
1 0 1 1 0 0 1 2 3 3 3 3 1 1 1 2 1 2 1 1 2 3 3 4 2 2 3 1 3 2 3 1 3 1 1 2 2 2 2 3 3 5 4 4 5 3 2 1 1 2 4 5 5 6 6 6 6 6 6 6 6 6 5 5 6 7 8 8 8 8 8 7 7 6 6 6 7 7 7 7 6 5 4 4 3 3 3
1 1 1 1 2 1 2 2 3 2 4 3 3 2 1 2 2 1 1 3 2 3 2 2 1 3 2 1 3 2 4 2 2 1 3 4 4 3 3 6 5 4 4 2 3 3 4 5 3 5 6 6 7 7 7 7 7 7 6 6 6 6 6 6 5 6 7 7 8 8 7 7 7 6 6 6 6 5 6 6 6 6 5 4 4 4 3
0 1 1 1 2 1 5 4 4 4 3 4 2 1 2 2 2 1 1 3 3 3 2 3 1 1 2 2 1 2 1 0 3 5 4 4 2 3 6 7 6 4 4 4 4 4 6 6 5 5 7 8 8 9 8 8 8 8 7 7 7 7 7 6 6 5 6 7 8 8 8 8 7 6 5 5 5 5 6 7 7 7 6 4 4 4 4
1 2 1 1 0 1 2 1 1 2 2 2 3 2 1 2 2 1 1 4 3 4 3 1 1 2 1 3 3 2 2 3 4 4 6 5 4 6 6 7 7 6 6 6 6 6 6 5 6 6 8 9 8 8 8 8 8 8 8 7 7 7 7 6 5 5 5 6 7 8 8 8 8 7 6 6 6 6 7 6 7 8 7 6 4 4 4
Wind_Direction
352 349 350 350 348 346 343 343 344 346 341 334 4 290 335 40 61 60 6 119 225 269 252 156 204 220 231 29 238 269 247 266 301 277 39 243 191 256 233 251 253 242 269 283 270 264 252 196 228 198 217 67 38 8 30 2 202 252 112 92 86 262 220 213 234 207 141 150 120 124 320 291 229 225 303 224 231 225 243 253 206 209 183 219 217 236 117
353 351 352 351 348 346 344 343 344 345 354 324 302 287 45 46 51 72 29 36 217 276 272 210 199 213 156 242 215 99 353 322 256 230 49 323 285 271 260 216 244 302 322 263 263 19 254 167 243 171 164 146 25 28 57 261 44 338 76 291 111 202 197 244 210 221 198 194 189 188 141 222 233 229 156 320 349 210 36 328 200 247 214 228 229 232 135
354 352 352 352 349 347 345 344 344 346 349 340 290 329 347 254 152 61 46 28 23 15 2 307 291 251 258 251 166 183 179 39 15 355 50 25 355 270 217 340 353 257 265 270 266 246 282 270 81 26 130 105 122 93 78 79 90 51 61 61 128 35 11 279 228 213 211 209 204 206 191 192 100 59 116 58 239 183 201 224 213 243 155 202 231 209 81
355 352 352 353 352 349 347 344 343 347 352 339 266 332 284 11 2 19 76 41 61 67 33 1 307 266 228 167 18 332 187 120 58 331 78 18 51 24 327 203 286 266 218 218 225 209 178 274 144 197 143 134 112 69 157 182 142 129 84 67 41 73 75 39 25 350 342 12 25 33 331 166 192 122 53 40 345 316 257 252 238 235 156 215 42 110 140
356 352 351 354 354 352 348 346 345 347 348 351 297 349 352 44 23 346 11 277 59 58 40 20 0 7 302 214 350 28 23 196 110 5 229 37 14 40 32 16 236 259 246 202 156 131 168 141 113 53 98 77 103 102 102 105 108 135 137 136 85 90 77 45 51 47 36 11 28 31 5 94 54 99 55 29 360 326 270 233 254 287 186 221 100 134 131
356 353 352 356 355 354 351 351 348 346 343 340 288 22 351 42 37 342 5 337 25 7 32 12 4 11 59 72 357 42 51 45 35 358 47 42 23 296 55 45 43 356 291 278 191 58 95 72 60 94 83 133 139 138 132 120 122 194 163 170 183 169 149 190 97 62 54 34 36 39 66 65 78 70 61 54 38 38 359 22 5 321 263 261 138 133 114
356 354 354 357 357 357 356 355 351 348 341 332 314 23 71 58 82 56 293 354 53 43 349 354 24 26 22 78 31 43 41 49 39 8 336 54 41 19 70 41 38 48 69 253 96 4 183 86 58 25 19 43 198 148 140 95 126 179 162 176 175 154 129 160 144 119 86 47 26 21 46 86 85 69 70 67 67 73 72 60 42 52 77 98 122 105 103
357 355 354 358 360 1 0 358 355 350 341 324 55 30 355 46 328 89 82 70 68 38 37 4 7 44 2 61 30 30 28 43 31 33 21 31 25 4 49 37 37 51 58 63 70 43 27 30 42 37 340 131 15 69 18 38 101 181 151 164 161 236 145 164 145 139 116 92 75 37 21 10 28 47 53 66 85 86 87 93 81 81 77 89 101 101 109
360 357 355 358 2 3 4 2 0 352 342 43 38 58 18 37 4 325 312 68 17 31 38 37 38 43 14 30 7 18 17 14 359 61 39 41 24 4 4 354 4 62 63 57 53 22 2 325 328 322 326 9 17 338 81 356 351 119 153 167 165 233 142 175 170 170 167 151 128 87 3 342 324 307 298 40 42 69 33 36 355 321 131 121 117 121 127
2 359 356 358 4 5 5 6 4 358 335 19 20 46 19 241 158 260 292 71 344 30 54 41 101 59 42 32 347 4 357 355 338 84 38 41 33 10 353 350 325 48 35 26 4 340 326 317 318 323 309 289 315 315 325 341 349 356 141 299 195 160 154 178 187 210 201 168 147 130 100 336 310 267 105 88 83 86 105 73 44 43 109 146 174 92 117
2 359 358 358 3 7 7 7 7 4 357 28 7 32 9 357 352 246 266 82 53 23 49 50 53 47 342 84 93 80 10 12 16 41 32 12 19 7 8 17 12 55 28 345 328 311 300 296 289 267 247 259 203 114 106 76 34 7 356 201 239 196 181 192 187 226 158 150 161 163 190 212 222 71 165 66 128 144 126 82 28 25 357 12 52 122 130
2 360 358 358 0 6 8 9 8 9 360 358 318 15 16 310 267 280 298 82 71 49 59 54 34 27 9 10 22 60 60 30 23 3 20 349 4 11 16 23 15 47 352 325 316 306 284 225 225 193 181 142 133 122 91 69 64 38 24 341 260 211 204 216 183 226 168 154 157 199 222 227 60 201 158 141 99 114 105 99 72 76 69 111 115 125 139
1 359 358 357 358 2 7 8 8 7 2 343 347 19 16 316 309 19 45 74 66 29 69 67 57 43 22 13 31 46 38 84 138 255 184 359 11 31 28 10 3 342 325 318 316 294 220 134 96 105 132 142 137 119 75 58 44 49 44 14 329 199 217 187 201 202 109 185 193 217 225 71 111 108 127 129 139 126 112 84 73 74 141 142 130 133 132
2 1 358 356 356 359 6 8 7 5 0 348 353 14 1 337 327 10 359 70 80 57 335 83 43 30 21 23 357 343 334 64 92 36 41 18 9 16 13 7 345 313 310 306 281 283 212 197 190 183 182 194 176 185 107 83 53 33 45 55 7 266 198 209 185 161 213 216 206 225 86 153 126 130 146 169 153 182 197 164 113 114 138 147 134 128 128
3 1 358 357 357 357 2 5 6 3 358 349 324 13 19 5 347 2 9 82 96 68 32 44 7 357 22 25 8 359 33 11 326 73 49 29 20 22 3 353 340 329 315 298 330 329 291 263 224 205 173 193 216 191 155 161 76 37 34 43 64 13 244 192 218 199 259 226 223 206 209 232 147 99 98 31 16 16 338 97 116 140 149 147 141 137 136
4 2 359 358 357 357 359 3 5 2 1 347 333 25 38 3 304 300 347 353 302 58 36 22 358 341 15 33 24 24 9 1 358 286 140 52 20 10 10 353 345 327 327 278 322 330 349 247 233 233 232 219 54 91 163 118 131 85 45 47 54 70 27 147 234 196 198 237 239 230 229 116 47 110 120 57 18 298 319 250 169 143 149 148 144 140 141
3 2 360 359 358 357 357 1 2 2 1 357 353 30 31 3 344 338 46 76 77 81 45 11 311 296 21 45 37 34 9 16 354 356 14 15 2 351 358 350 341 1 356 311 1 306 173 172 237 243 104 5 285 58 285 28 112 103 112 96 67 45 358 226 230 227 215 234 236 241 30 77 105 77 353 30 327 41 258 230 196 148 149 145 143 141 145
0 359 359 358 358 357 358 360 1 360 358 353 344 29 34 2 354 314 63 83 90 79 46 26 29 54 47 25 39 21 342 20 7 229 306 21 3 7 347 359 360 42 347 32 352 75 58 32 58 326 228 49 320 293 271 31 61 359 7 348 24 28 18 314 231 244 92 263 241 213 126 88 82 42 12 17 285 261 205 230 109 144 136 140 141 136 138
359 358 358 357 356 357 357 359 360 359 359 355 334 206 45 3 353 326 88 76 83 86 64 42 51 56 26 248 50 39 52 347 350 4 356 346 32 339 314 331 300 358 0 33 29 50 45 93 47 357 25 106 87 52 351 60 16 7 333 289 154 99 114 161 167 218 225 229 244 249 49 46 18 27 13 348 295 184 232 69 128 125 126 120 118 113 107
358 356 357 356 356 357 357 357 358 358 358 358 345 70 24 8 5 2 31 83 78 84 63 47 31 54 41 40 36 31 33 40 15 22 23 10 352 326 237 170 45 354 18 355 72 11 25 58 36 339 321 78 59 335 107 92 50 22 22 7 343 21 295 230 134 69 95 197 222 193 247 84 353 17 127 357 314 55 100 124 111 116 111 113 106 99 95
359 356 355 355 355 357 358 357 358 358 357 355 348 335 79 29 8 2 348 3 94 92 86 59 44 56 39 51 37 34 31 31 16 11 28 29 349 306 39 23 352 358 19 359 22 41 357 39 49 51 22 338 95 226 101 113 106 65 5 33 50 8 275 208 94 358 264 213 209 265 26 78 40 302 188 82 71 103 110 112 115 113 116 110 106 87 79
358 356 355 354 354 357 357 357 358 358 357 353 339 288 86 41 23 358 320 337 63 76 79 59 12 45 52 41 35 17 20 21 28 358 352 35 29 42 72 55 27 16 25 322 225 133 118 44 242 324 165 136 206 351 38 239 163 94 67 321 210 27 28 356 346 43 6 25 58 99 119 76 70 77 91 99 102 102 100 96 109 112 94 87 97 94 84
358 356 355 354 354 355 355 356 357 358 356 355 346 35 45 23 23 341 284 92 96 106 160 148 191 136 132 90 52 19 17 2 330 351 359 342 65 38 37 20 48 5 359 356 2 2 21 326 64 343 67 18 4 119 179 316 88 87 70 37 53 60 29 326 88 86 99 79 77 99 117 108 90 78 84 92 84 79 89 100 100 75 67 63 81 86 81
357 355 353 354 351 353 355 355 357 358 356 355 346 0 60 29 359 316 123 74 98 110 91 56 112 53 29 41 37 45 83 32 10 347 314 309 2 102 90 43 340 253 47 33 340 337 19 351 29 315 66 37 307 259 225 121 46 48 117 122 84 56 184 187 111 145 189 90 119 108 110 118 104 93 89 78 64 67 66 73 70 78 77 76 71 71 76
354 353 350 352 351 352 355 356 357 357 357 355 339 193 242 60 19 341 298 189 162 233 86 87 63 35 33 27 304 52 42 350 303 322 341 24 29 28 39 31 8 359 25 7 289 265 266 287 178 179 83 46 313 65 4 267 125 320 221 113 177 108 312 99 109 142 344 118 135 129 103 107 131 128 113 104 93 88 79 83 87 90 94 98 100 111 93
351 348 346 346 349 354 355 356 355 358 355 352 341 32 49 36 352 298 279 59 31 335 109 85 98 102 253 157 49 24 340 331 358 359 35 40 22 9 41 162 154 244 330 356 294 337 16 52 19 9 354 96 312 311 63 15 50 11 315 68 19 57 243 126 202 112 101 118 142 145 147 149 143 147 88 93 112 111 111 106 120 129 118 116 111 76 77
345 345 341 339 343 349 352 351 354 354 353 349 343 37 45 56 23 27 17 340 282 142 143 101 98 97 54 67 46 6 11 343 303 282 78 53 19 46 308 344 19 170 228 123 38 320 59 45 12 55 26 66 331 36 2 171 314 168 165 98 189 231 202 104 206 163 177 180 160 170 175 171 162 161 148 130 106 111 111 128 118 119 107 94 88 92 61
343 342 335 332 338 341 345 346 348 348 343 329 290 27 33 45 39 27 13 359 323 351 99 134 140 96 211 83 26 25 24 15 8 7 13 40 29 24 21 42 19 27 22 314 157 118 354 67 81 85 102 63 269 124 23 75 262 251 237 106 340 302 53 232 239 292 168 98 135 155 29 48 89 137 138 133 135 137 150 142 131 93 52 36 358 265 216
341 335 329 331 331 333 337 340 342 342 336 306 261 248 146 60 44 39 15 345 306 311 71 79 135 187 148 56 337 44 54 30 32 24 57 65 56 41 48 34 36 38 78 59 62 38 54 73 15 9 37 12 309 135 193 226 216 249 62 71 36 34 13 25 31 60 72 93 136 88 33 84 103 117 132 145 147 186 135 91 71 32 34 270 284 317 316
337 332 325 324 324 324 329 335 338 348 323 273 232 238 186 128 52 27 13 350 348 312 240 184 147 79 130 248 53 36 36 37 53 57 52 51 42 32 26 28 58 19 23 20 335 55 50 51 89 94 92 288 294 342 286 254 228 95 92 103 86 104 67 46 24 4 93 91 110 88 90 92 89 108 101 96 110 12 360 30 320 281 229 308 291 283 290
336 330 323 316 313 315 322 332 335 334 292 228 240 232 242 139 74 35 3 343 337 303 321 279 84 126 152 88 325 12 12 23 38 55 47 27 41 34 62 262 84 317 286 133 48 63 273 88 97 107 136 39 330 261 277 248 286 128 129 138 127 118 109 78 55 64 90 107 105 98 90 86 105 123 144 127 133 175 171 160 129 344 6 299 273 293 290
329 323 316 310 307 310 316 319 323 289 267 275 353 13 24 12 346 332 326 307 302 255 251 180 154 191 94 141 76 8 342 356 300 161 75 346 57 36 77 358 44 26 357 360 65 205 61 43 322 34 343 75 279 313 283 270 140 77 138 166 145 121 111 121 113 104 102 114 132 132 126 110 162 308 30 121 126 135 292 296 312 132 143 246 286 263 279
327 318 312 306 304 305 311 302 289 297 79 78 87 116 106 36 304 290 301 292 249 1 314 278 70 100 206 80 134 73 338 236 81 339 77 13 29 306 104 69 138 131 67 265 180 18 64 288 274 203 92 258 261 262 285 44 119 94 114 174 175 156 140 123 129 132 131 132 79 287 268 134 146 164 154 165 156 217 216 262 238 249 271 260 249 247 226
328 322 313 306 300 303 329 106 123 118 148 198 150 76 32 7 325 179 300 283 344 151 269 281 158 190 106 161 186 77 334 355 52 342 64 64 359 283 35 215 101 216 32 332 72 222 159 243 275 53 170 168 279 280 249 323 107 170 153 156 171 165 154 153 157 159 155 142 115 59 58 68 77 121 176 196 201 243 279 271 234 243 236 246 253 253 268
335 335 335 308 149 127 140 164 168 213 124 103 79 62 1 356 334 302 299 311 248 156 181 115 296 157 149 184 185 85 344 299 34 16 358 66 24 5 342 294 151 245 89 304 237 294 317 52 13 262 195 85 230 234 261 232 169 167 173 170 170 177 175 183 185 176 170 160 159 140 136 160 179 193 191 211 240 224 231 230 229 237 245 233 262 258 269
346 356 71 114 143 171 167 207 274 190 165 43 35 10 348 328 292 287 347 16 340 332 215 100 259 161 207 177 114 87 294 180 48 260 53 292 170 72 325 315 197 89 338 283 302 224 244 62 263 260 87 240 231 244 296 352 285 257 221 205 177 194 196 209 179 174 167 169 166 158 179 212 233 229 230 240 238 221 223 233 225 233 253 276 274 293 286
346 355 207 198 200 196 117 67 65 21 29 333 318 316 297 289 207 224 213 211 108 333 330 222 226 78 355 45 86 92 285 45 350 310 46 2 9 24 332 300 37 13 242 209 191 312 66 15 278 274 233 252 252 7 352 323 304 289 258 227 188 193 195 184 158 159 159 165 177 192 208 228 232 240 245 245 235 225 222 227 232 233 235 247 269 283 302
319 253 234 205 207 183 150 123 53 20 321 288 274 250 176 218 178 150 163 154 42 283 93 275 64 70 160 277 38 45 282 72 321 335 52 46 292 94 312 305 47 313 330 351 54 12 302 234 261 301 296 283 351 38 10 344 320 283 269 246 210 191 195 171 168 174 172 182 204 213 223 234 246 243 248 236 227 219 222 235 236 237 246 261 281 293 297
264 219 188 340 273 60 30 55 28 324 277 235 235 248 134 7 214 144 59 45 214 139 45 308 66 359 311 260 98 70 352 329 303 335 339 65 326 15 5 331 105 285 300 239 117 291 267 189 206 263 259 195 223 113 12 344 313 273 269 240 211 186 181 179 184 194 215 294 2 24 302 294 290 263 232 225 214 217 215 220 231 235 248 266 274 294 309
51 90 20 302 53 42 354 57 191 278 221 207 144 284 113 351 279 104 241 171 119 75 268 95 36 23 7 347 321 113 55 297 322 347 339 33 116 324 28 281 57 289 300 312 65 334 299 311 332 277 278 253 183 59 342 348 316 61 147 168 171 174 175 175 169 154 166 107 97 81 262 278 285 282 245 212 204 202 212 215 217 234 255 277 345 308 302
27 21 237 31 29 345 346 322 279 229 239 168 145 74 291 101 45 13 268 130 74 77 2 360 196 171 117 257 276 331 91 271 26 316 286 321 64 269 298 345 39 287 277 300 78 280 289 291 287 286 308 355 330 348 331 323 60 94 135 149 147 159 168 168 162 163 160 147 165 184 218 232 242 251 231 196 200 189 182 238 225 239 265 284 273 275 316
355 343 7 317 309 286 272 217 240 159 94 303 36 65 20 46 188 157 332 359 82 158 108 322 53 355 38 355 13 314 113 18 311 287 304 312 83 310 341 338 252 285 317 56 330 275 287 292 302 299 333 33 349 342 341 340 83 116 137 143 143 156 168 170 168 170 179 170 153 175 189 219 212 214 220 199 186 183 191 208 227 236 255 280 290 282 282
269 250 226 237 220 197 268 175 54 318 76 87 106 90 165 132 38 52 99 100 117 269 85 218 61 270 129 240 192 37 13 47 293 317 288 352 116 242 304 316 251 260 348 348 279 305 289 282 281 302 45 24 11 358 22 360 348 152 130 146 153 166 172 178 184 177 184 185 166 160 182 200 202 191 191 202 205 193 215 234 246 270 270 283 290 294 284
155 205 208 210 206 70 266 94 31 136 81 19 294 125 163 141 148 169 180 107 155 155 49 327 15 321 3 100 327 13 180 181 218 288 278 84 277 308 267 265 285 23 283 267 281 291 309 315 292 302 351 19 348 31 29 37 38 167 155 158 156 169 182 187 188 187 191 197 195 182 191 202 201 189 191 214 217 216 216 225 234 252 290 289 275 270 259
233 193 176 160 53 28 295 74 262 182 94 106 311 109 157 133 129 201 67 80 286 7 1 277 304 312 313 39 253 136 311 341 101 275 317 316 293 280 267 310 348 296 298 308 302 294 289 267 200 193 213 216 4 29 19 29 31 351 203 178 184 189 197 205 204 209 206 203 201 198 214 232 219 207 204 210 212 222 238 235 224 230 257 281 283 272 194
255 44 197 146 5 311 341 114 137 156 109 177 171 147 106 68 58 92 77 41 298 304 293 321 286 280 299 63 313 345 317 314 308 332 333 290 301 295 345 317 275 284 280 267 277 292 300 303 55 15 350 270 324 341 344 17 31 60 189 219 206 208 212 218 221 224 226 224 208 204 216 236 252 230 215 212 214 213 216 224 226 248 279 288 284 290 226
155 218 291 347 95 100 256 175 146 53 111 148 77 57 37 57 31 18 46 307 287 345 311 286 300 324 308 325 295 207 203 319 298 318 289 279 272 294 242 285 278 255 271 282 273 284 284 270 262 281 285 274 255 289 310 315 314 315 328 327 293 255 232 231 232 235 232 225 214 211 222 228 240 239 228 220 214 213 214 223 229 238 265 282 302 292 268
270 3 278 186 144 172 175 119 78 120 81 62 90 67 63 26 237 162 120 259 340 294 295 304 280 244 231 136 228 295 315 312 295 256 264 297 285 275 285 259 265 269 245 267 278 287 288 315 323 318 298 286 283 282 270 282 301 309 311 311 309 287 264 246 239 236 232 222 216 220 229 230 232 235 230 232 225 217 213 215 221 227 250 255 238 226 250
1 304 299 73 75 160 117 122 188 169 140 136 126 178 177 235 320 352 23 190 264 291 331 303 326 310 296 357 296 296 282 177 265 246 182 226 237 245 248 268 273 277 251 235 276 290 299 299 330 314 300 300 288 279 281 282 284 289 295 301 304 307 293 270 256 245 229 219 215 216 224 226 227 239 239 231 230 225 215 214 217 221 235 247 234 219 213
244 153 186 195 178 166 114 156 236 215 161 165 187 216 211 268 285 18 66 264 295 288 261 246 227 278 309 322 287 296 283 258 256 259 253 245 240 248 250 269 250 248 298 292 275 271 274 274 283 285 291 294 297 296 290 282 276 277 286 303 308 304 298 290 273 249 230 220 219 218 213 212 218 234 241 233 232 234 222 212 215 225 230 235 239 216 214
151 295 331 360 299 135 161 204 206 217 216 213 238 256 245 277 322 320 97 298 293 277 268 277 296 281 285 266 270 271 265 41 259 241 244 260 236 233 242 259 275 286 287 297 293 290 287 290 292 293 302 298 295 291 293 289 280 277 286 295 300 302 298 287 275 261 240 225 221 217 209 207 212 222 230 229 228 221 220 214 217 227 232 229 227 230 212
233 220 198 137 234 261 259 334 314 262 253 278 266 245 249 266 281 319 74 271 263 259 268 256 255 247 225 245 229 262 303 270 256 261 261 251 242 254 256 270 293 300 304 299 296 295 291 289 293 300 296 295 299 300 297 291 283 278 279 286 291 294 295 290 281 262 242 226 216 216 213 207 198 202 209 217 221 224 225 223 212 216 223 229 219 216 222